PGT23CD LTFJ-LTAC

Flight info

Callsign PGT23CD
Flight time 0h 34m
Altitude 25000
Route VICEN UT380 ASMAP UL333 LATGA
Aircraft A20N/M-SDE2E3FGHIJ1RWXY/LB1

Departure

Time 2026-04-27 20:23
Airport Istanbul Sabiha Gökçen International Airport (LTFJ)

Arrival

Time 2026-04-27 20:57
Airport Esenboğa International Airport (LTAC)
Time Latitude Longitude Altitude Speed Heading
2026-04-27 19:58 40.90859 29.31909 321 ft 0 kts 243°
2026-04-27 20:12 40.90865 29.31926 321 ft 2 kts 243°
2026-04-27 20:12 40.90871 29.31943 321 ft 2 kts 244°
2026-04-27 20:12 40.90878 29.31962 321 ft 2 kts 224°
2026-04-27 20:13 40.90892 29.31969 321 ft 2 kts 174°
2026-04-27 20:13 40.90906 29.31962 321 ft 2 kts 145°
2026-04-27 20:13 40.90913 29.31956 321 ft 0 kts 154°
2026-04-27 20:15 40.90906 29.31960 321 ft 2 kts 154°
2026-04-27 20:15 40.90885 29.31974 321 ft 4 kts 154°
2026-04-27 20:16 40.90868 29.31985 321 ft 4 kts 145°
2026-04-27 20:16 40.90845 29.32024 321 ft 5 kts 118°
2026-04-27 20:16 40.90821 29.32069 321 ft 6 kts 137°
2026-04-27 20:16 40.90780 29.32102 321 ft 7 kts 150°
2026-04-27 20:17 40.90728 29.32128 321 ft 8 kts 179°
2026-04-27 20:17 40.90683 29.32074 321 ft 10 kts 247°
2026-04-27 20:17 40.90651 29.31984 321 ft 11 kts 245°
2026-04-27 20:17 40.90590 29.31931 321 ft 12 kts 163°
2026-04-27 20:18 40.90514 29.31982 321 ft 12 kts 157°
2026-04-27 20:18 40.90439 29.31939 320 ft 13 kts 244°
2026-04-27 20:18 40.90397 29.31822 320 ft 14 kts 244°
2026-04-27 20:18 40.90351 29.31698 320 ft 15 kts 244°
2026-04-27 20:19 40.90304 29.31568 320 ft 15 kts 244°
2026-04-27 20:19 40.90255 29.31434 320 ft 16 kts 245°
2026-04-27 20:19 40.90203 29.31294 320 ft 17 kts 244°
2026-04-27 20:19 40.90151 29.31152 321 ft 17 kts 243°
2026-04-27 20:20 40.90096 29.31006 321 ft 18 kts 244°
2026-04-27 20:20 40.90037 29.30847 321 ft 19 kts 244°
2026-04-27 20:20 40.89972 29.30669 321 ft 21 kts 244°
2026-04-27 20:20 40.89902 29.30480 321 ft 22 kts 243°
2026-04-27 20:21 40.89830 29.30282 321 ft 23 kts 244°
2026-04-27 20:21 40.89748 29.30059 316 ft 26 kts 244°
2026-04-27 20:21 40.89665 29.29837 319 ft 25 kts 244°
2026-04-27 20:21 40.89587 29.29620 314 ft 27 kts 243°
2026-04-27 20:22 40.89505 29.29393 309 ft 15 kts 244°
2026-04-27 20:22 40.89445 29.29273 305 ft 17 kts 214°
2026-04-27 20:22 40.89330 29.29291 304 ft 12 kts 147°
2026-04-27 20:22 40.89280 29.29350 305 ft 7 kts 106°
2026-04-27 20:23 40.89324 29.29487 308 ft 42 kts 64°
2026-04-27 20:23 40.89557 29.30131 321 ft 111 kts 63°
2026-04-27 20:23 40.89979 29.31282 388 ft 160 kts 63°
2026-04-27 20:23 40.90470 29.32630 1011 ft 165 kts 62°
2026-04-27 20:24 40.90950 29.33910 1997 ft 154 kts 63°
2026-04-27 20:24 40.91431 29.35198 2542 ft 165 kts 63°
2026-04-27 20:24 40.91956 29.36613 2989 ft 183 kts 63°
2026-04-27 20:24 40.92558 29.38238 3415 ft 206 kts 64°
2026-04-27 20:25 40.93005 29.40108 3923 ft 227 kts 85°
2026-04-27 20:25 40.92683 29.42242 4591 ft 245 kts 114°
2026-04-27 20:25 40.91577 29.43990 5250 ft 264 kts 143°
2026-04-27 20:25 40.89912 29.45110 6057 ft 273 kts 153°
2026-04-27 20:26 40.88193 29.46172 6948 ft 277 kts 153°
2026-04-27 20:26 40.86462 29.47264 7824 ft 281 kts 151°
2026-04-27 20:26 40.84925 29.48836 8642 ft 284 kts 123°
2026-04-27 20:26 40.84179 29.51219 9499 ft 285 kts 101°
2026-04-27 20:27 40.83830 29.53790 10299 ft 291 kts 97°
2026-04-27 20:27 40.83501 29.56459 10847 ft 306 kts 98°
2026-04-27 20:27 40.83108 29.59317 11285 ft 325 kts 99°
2026-04-27 20:27 40.82653 29.62290 11725 ft 341 kts 101°
2026-04-27 20:28 40.82143 29.65416 12415 ft 349 kts 102°
2026-04-27 20:28 40.81617 29.68529 13196 ft 353 kts 103°
2026-04-27 20:28 40.81063 29.71741 13966 ft 358 kts 103°
2026-04-27 20:28 40.80688 29.73896 14460 ft 361 kts 103°
2026-04-27 20:29 40.79898 29.78398 15451 ft 367 kts 103°
2026-04-27 20:29 40.79292 29.81832 16205 ft 372 kts 103°
2026-04-27 20:29 40.78700 29.85183 16897 ft 376 kts 103°
2026-04-27 20:29 40.78082 29.88671 17595 ft 380 kts 103°
2026-04-27 20:30 40.77467 29.92135 18228 ft 385 kts 103°
2026-04-27 20:30 40.76853 29.95588 18881 ft 389 kts 103°
2026-04-27 20:30 40.76219 29.99151 19518 ft 393 kts 103°
2026-04-27 20:30 40.75591 30.02667 20141 ft 396 kts 103°
2026-04-27 20:31 40.74961 30.06190 20740 ft 400 kts 103°
2026-04-27 20:31 40.74323 30.09752 21448 ft 400 kts 104°
2026-04-27 20:31 40.73690 30.13277 22263 ft 397 kts 104°
2026-04-27 20:31 40.73060 30.16784 23017 ft 395 kts 104°
2026-04-27 20:32 40.72429 30.20282 23716 ft 394 kts 104°
2026-04-27 20:32 40.71764 30.23962 24323 ft 396 kts 104°
2026-04-27 20:32 40.71094 30.27652 24840 ft 400 kts 104°
2026-04-27 20:32 40.70442 30.31238 25145 ft 404 kts 104°
2026-04-27 20:33 40.69787 30.34840 25180 ft 405 kts 104°
2026-04-27 20:33 40.69129 30.38455 25185 ft 405 kts 104°
2026-04-27 20:33 40.68471 30.42061 25180 ft 405 kts 104°
2026-04-27 20:33 40.67819 30.45636 25175 ft 405 kts 104°
2026-04-27 20:34 40.67161 30.49233 25169 ft 405 kts 104°
2026-04-27 20:34 40.66507 30.52801 25165 ft 405 kts 104°
2026-04-27 20:34 40.65844 30.56413 25161 ft 404 kts 104°
2026-04-27 20:34 40.65182 30.60017 25157 ft 404 kts 104°
2026-04-27 20:35 40.64526 30.63578 25152 ft 404 kts 104°
2026-04-27 20:35 40.63860 30.67183 25150 ft 404 kts 105°
2026-04-27 20:35 40.63194 30.70778 25149 ft 404 kts 105°
2026-04-27 20:35 40.62486 30.74339 25144 ft 404 kts 107°
2026-04-27 20:36 40.61734 30.77881 25147 ft 404 kts 107°
2026-04-27 20:36 40.60964 30.81467 25147 ft 404 kts 107°
2026-04-27 20:36 40.60207 30.85007 25147 ft 404 kts 107°
2026-04-27 20:36 40.59402 30.88777 25142 ft 404 kts 107°
2026-04-27 20:37 40.58603 30.92530 25143 ft 403 kts 107°
2026-04-27 20:37 40.57853 30.96056 25146 ft 403 kts 107°
2026-04-27 20:37 40.57090 30.99640 25142 ft 403 kts 107°
2026-04-27 20:37 40.56344 31.03145 25142 ft 403 kts 107°
2026-04-27 20:38 40.55585 31.06702 25141 ft 403 kts 107°
2026-04-27 20:38 40.54828 31.10246 25138 ft 402 kts 107°
2026-04-27 20:38 40.54080 31.13742 25138 ft 402 kts 107°
2026-04-27 20:38 40.53322 31.17275 25139 ft 402 kts 107°
2026-04-27 20:39 40.52559 31.20823 25139 ft 402 kts 107°
2026-04-27 20:39 40.51801 31.24335 25136 ft 402 kts 107°
2026-04-27 20:39 40.51040 31.27855 25134 ft 402 kts 107°
2026-04-27 20:39 40.50276 31.31380 25131 ft 402 kts 107°
2026-04-27 20:40 40.49511 31.34910 25113 ft 402 kts 107°
2026-04-27 20:40 40.48751 31.38409 24859 ft 401 kts 107°
2026-04-27 20:40 40.47822 31.41836 24597 ft 397 kts 113°
2026-04-27 20:40 40.46754 31.45124 24338 ft 394 kts 115°
2026-04-27 20:41 40.45667 31.48395 24072 ft 391 kts 115°
2026-04-27 20:41 40.44588 31.51677 23769 ft 389 kts 114°
2026-04-27 20:41 40.43538 31.54910 23402 ft 389 kts 114°
2026-04-27 20:41 40.42478 31.58206 22926 ft 390 kts 114°
2026-04-27 20:42 40.41441 31.61443 22388 ft 390 kts 114°
2026-04-27 20:42 40.40390 31.64732 21791 ft 391 kts 113°
2026-04-27 20:42 40.39335 31.68040 21312 ft 389 kts 114°
2026-04-27 20:42 40.38300 31.71287 20858 ft 387 kts 114°
2026-04-27 20:43 40.37262 31.74542 20391 ft 384 kts 114°
2026-04-27 20:43 40.36239 31.77746 19926 ft 382 kts 113°
2026-04-27 20:43 40.35212 31.80959 19477 ft 380 kts 113°
2026-04-27 20:43 40.34203 31.84115 19031 ft 378 kts 113°
2026-04-27 20:44 40.33186 31.87290 18564 ft 376 kts 113°
2026-04-27 20:44 40.32143 31.90546 18089 ft 374 kts 113°
2026-04-27 20:44 40.31083 31.93849 17603 ft 372 kts 113°
2026-04-27 20:44 40.30024 31.97147 17106 ft 370 kts 112°
2026-04-27 20:45 40.29030 32.00238 16637 ft 369 kts 112°
2026-04-27 20:45 40.28031 32.03338 16165 ft 367 kts 112°
2026-04-27 20:45 40.27049 32.06384 15697 ft 365 kts 112°
2026-04-27 20:45 40.26064 32.09433 15225 ft 363 kts 112°
2026-04-27 20:46 40.25087 32.12459 14754 ft 361 kts 112°
2026-04-27 20:46 40.24120 32.15447 14291 ft 358 kts 112°
2026-04-27 20:46 40.23145 32.18460 13878 ft 355 kts 112°
2026-04-27 20:46 40.22147 32.21540 13430 ft 352 kts 112°
2026-04-27 20:47 40.21199 32.24465 12988 ft 350 kts 112°
2026-04-27 20:47 40.20245 32.27409 12519 ft 348 kts 112°
2026-04-27 20:47 40.19314 32.30272 12064 ft 346 kts 112°
2026-04-27 20:47 40.18379 32.33149 11633 ft 344 kts 112°
2026-04-27 20:48 40.17444 32.36019 11165 ft 343 kts 112°
2026-04-27 20:48 40.16516 32.38864 10713 ft 341 kts 113°
2026-04-27 20:48 40.15593 32.41691 10373 ft 335 kts 113°
2026-04-27 20:48 40.14687 32.44463 10168 ft 323 kts 113°
2026-04-27 20:49 40.13824 32.47099 10054 ft 310 kts 113°
2026-04-27 20:49 40.13001 32.49616 9873 ft 300 kts 113°
2026-04-27 20:49 40.12175 32.52138 9659 ft 291 kts 113°
2026-04-27 20:49 40.11384 32.54548 9306 ft 289 kts 113°
2026-04-27 20:50 40.10597 32.56942 8922 ft 287 kts 113°
2026-04-27 20:50 40.09806 32.59350 8583 ft 284 kts 113°
2026-04-27 20:50 40.09037 32.61687 8312 ft 279 kts 112°
2026-04-27 20:50 40.08285 32.63972 8035 ft 274 kts 112°
2026-04-27 20:51 40.07528 32.66270 7778 ft 268 kts 113°
2026-04-27 20:51 40.06798 32.68483 7532 ft 263 kts 113°
2026-04-27 20:51 40.06078 32.70663 7281 ft 254 kts 113°
2026-04-27 20:51 40.05420 32.72734 7028 ft 245 kts 109°
2026-04-27 20:52 40.04875 32.74826 6758 ft 241 kts 108°
2026-04-27 20:52 40.04363 32.76870 6466 ft 239 kts 107°
2026-04-27 20:52 40.03855 32.78906 6177 ft 236 kts 107°
2026-04-27 20:52 40.03340 32.80955 5877 ft 234 kts 107°
2026-04-27 20:53 40.02842 32.82927 5616 ft 224 kts 107°
2026-04-27 20:53 40.02369 32.84797 5382 ft 212 kts 107°
2026-04-27 20:53 40.01923 32.86559 5252 ft 199 kts 107°
2026-04-27 20:53 40.01551 32.88243 5155 ft 189 kts 94°
2026-04-27 20:54 40.02713 32.90696 4868 ft 152 kts 29°
2026-04-27 20:54 40.03612 32.91292 4724 ft 140 kts 28°
2026-04-27 20:54 40.04460 32.91913 4598 ft 138 kts 32°
2026-04-27 20:55 40.05279 32.92556 4565 ft 138 kts 32°
2026-04-27 20:55 40.06083 32.93249 4389 ft 137 kts 35°
2026-04-27 20:55 40.06850 32.93983 4221 ft 137 kts 37°
2026-04-27 20:55 40.07615 32.94719 4036 ft 137 kts 36°
2026-04-27 20:56 40.08379 32.95461 3852 ft 136 kts 36°
2026-04-27 20:56 40.09149 32.96175 3661 ft 136 kts 36°
2026-04-27 20:56 40.09910 32.96904 3489 ft 135 kts 36°
2026-04-27 20:56 40.10673 32.97609 3308 ft 135 kts 36°
2026-04-27 20:57 40.11428 32.98334 3154 ft 133 kts 36°
2026-04-27 20:57 40.12094 32.98968 3127 ft 83 kts 36°
2026-04-27 20:57 40.12436 32.99296 3129 ft 50 kts 36°
2026-04-27 20:57 40.12585 32.99466 3131 ft 12 kts 62°
2026-04-27 20:58 40.12598 32.99569 3133 ft 10 kts 95°
2026-04-27 20:58 40.12593 32.99650 3136 ft 6 kts 93°
2026-04-27 20:58 40.12584 32.99694 3139 ft 2 kts 123°
2026-04-27 20:58 40.12572 32.99709 3139 ft 2 kts 149°
2026-04-27 20:59 40.12545 32.99710 3140 ft 5 kts 200°
2026-04-27 20:59 40.12501 32.99670 3139 ft 9 kts 217°
2026-04-27 20:59 40.12442 32.99611 3137 ft 11 kts 217°
2026-04-27 20:59 40.12372 32.99543 3136 ft 13 kts 216°
2026-04-27 21:00 40.12293 32.99468 3136 ft 14 kts 216°
2026-04-27 21:00 40.12207 32.99386 3135 ft 15 kts 217°
2026-04-27 21:00 40.12114 32.99297 3133 ft 16 kts 216°
2026-04-27 21:00 40.12016 32.99204 3132 ft 18 kts 216°
2026-04-27 21:01 40.11914 32.99107 3131 ft 18 kts 216°
2026-04-27 21:01 40.11820 32.99042 3130 ft 13 kts 173°
2026-04-27 21:01 40.11750 32.99112 3132 ft 12 kts 150°
2026-04-27 21:01 40.11667 32.99141 3132 ft 4 kts 156°
2026-04-27 21:02 40.11641 32.99158 3132 ft 4 kts 152°
2026-04-27 21:02 40.11627 32.99168 3132 ft 0 kts 150°